Home > Weather > Medina > Past weeks

Flag for Saudi Arabia Weather for the Past 2 Weeks in Medina, Saudi Arabia

Now
54 °F

Clear.


Feels Like: 52 °F
Forecast: 46 / 79 °F
Wind: 7 mph from Northeast

Location: Madinah

Current Time: Feb 9, 2016 at 7:12:20 AM

Latest Report: Feb 9, 2016 at 6:00 AM


Visibility: 10 mi

Pressure: 30.21 "Hg (28.09 "Hg at 606m altitude)

Humidity: 35%

Dew point: 27 °F

Location of MedinaLocation

Historic Weather in Medina — Graph

°F

Medina Temperature Yesterday

Maximum temperature yesterday: 73 °F (at 5:00 PM)
Minimum temperature yesterday: 54 °F (at 6:00 AM)
Average temperature yesterday: 63 °F

High & Low Weather Summary for the Past Weeks

 TemperatureHumidityPressure
High84 °F (Feb 5, 3:00 PM)77% (Jan 26, 4:00 AM)30.45 "Hg (Jan 26, 4:00 AM)
Low41 °F (Jan 30, 7:00 AM)10% (Jan 31, 3:00 AM)29.95 "Hg (Feb 6, 3:00 PM)
Average63 °F27%30.18 "Hg
* Reported Jan 25 7:00 AM — Feb 9 6:00 AM, Medina, Weather by CustomWeather, © 2016

Note: Actual official high and low records may vary slightly from our data, if they occured in-between our weather recording intervals... More about our weather records

Advertising

Medina Weather History for the Previous 24 Hours

 ConditionsComfort  
Time TempWeatherWind HumidityBarometerVisibility
6:00 AM
Tue, Feb 9
54 °FClear.7 mph35%30.21 "Hg10 mi
5:00 AM55 °FClear.9 mph33%30.18 "Hg10 mi
4:00 AM55 °FClear.7 mph31%30.18 "Hg10 mi
3:00 AM59 °FClear.7 mph27%30.18 "Hg10 mi
2:00 AM55 °FClear.5 mph21%30.18 "Hg10 mi
1:00 AM57 °FClear.7 mph20%30.18 "Hg10 mi
12:00 AM59 °FClear.6 mph18%30.18 "Hg10 mi
11:00 PM
Mon, Feb 8
63 °FClear.6 mph16%30.18 "Hg10 mi
10:00 PM64 °FClear.7 mph15%30.18 "Hg10 mi
9:00 PM66 °FClear.5 mph12%30.15 "Hg10 mi
8:00 PM68 °FClear.5 mph12%30.12 "Hg10 mi
7:00 PM70 °FClear.3 mph13%30.12 "Hg10 mi
6:00 PM72 °FSunny.3 mph12%30.12 "Hg10 mi
5:00 PM73 °FSunny.3 mph10%30.12 "Hg10 mi
4:00 PM72 °FSunny.3 mph11%30.12 "Hg10 mi
3:00 PM70 °FSunny.5 mph16%30.12 "Hg10 mi
2:00 PM68 °FSunny.5 mph18%30.12 "Hg10 mi
1:00 PM66 °FSunny.7 mph21%30.15 "Hg10 mi
12:00 PM63 °FSunny.5 mph30%30.18 "Hg10 mi
11:00 AM61 °FSunny.3 mph36%30.21 "Hg10 mi
9:00 AM57 °FSunny.8 mph44%30.18 "Hg10 mi
8:00 AM54 °FSunny.6 mph54%30.18 "Hg10 mi
7:00 AM54 °FSunny.8 mph58%30.15 "Hg10 mi
Weather by CustomWeather, © 2016

See weather overviewHow to use our weather pages